KE2GQQ Weather Reports


time (UTC)temp
F
wind
direction
speed
knots
gust
knots
rain 1hr
in
rain 24hr
in
rain mn
in
humidity
%
barometer
mb
20260506025516 64 206 1.7 5.2 0.00 0.00 0.00 70 1010.6
20260506024516 64 211 1.7 5.2 0.00 0.00 0.00 69 1010.6
20260506023516 64 210 1.7 4.3 0.00 0.00 0.00 68 1010.6
20260506022537 65 207 1.7 3.5 0.00 0.00 0.00 68 1010.5
20260506021516 65 213 2.6 5.2 0.00 0.00 0.00 67 1010.5
20260506020517 66 214 2.6 6.1 0.00 0.00 0.00 66 1010.5
20260506015517 66 213 1.7 6.1 0.00 0.00 0.00 66 1010.4
20260506014517 66 210 1.7 5.2 0.00 0.00 0.00 64 1010.3
20260506013517 67 213 2.6 4.3 0.00 0.00 0.00 64 1010.1
20260506012517 67 214 2.6 6.1 0.00 0.00 0.00 64 1010.1
20260506011521 67 213 1.7 4.3 0.00 0.00 0.00 63 1009.9
20260506010536 68 213 2.6 6.1 0.00 0.00 0.00 63 1009.8
20260506005516 68 214 2.6 5.2 0.00 0.00 0.00 62 1009.7
20260506004516 68 216 3.5 7.0 0.00 0.00 0.00 62 1009.5
20260506003536 68 215 2.6 6.1 0.00 0.00 0.00 62 1009.5
20260506002516 68 213 2.6 7.0 0.00 0.00 0.00 62 1009.4
20260506001516 67 214 2.6 4.3 0.00 0.00 0.00 64 1009.3
20260506000516 67 213 2.6 5.2 0.00 0.00 0.00 63 1009.3
20260505235517 67 213 2.6 6.1 0.00 0.00 0.00 63 1009.2
20260505234516 67 209 2.6 7.0 0.00 0.00 0.00 63 1009.1
20260505233538 67 215 1.7 3.5 0.00 0.00 0.00 63 1008.9
20260505232537 67 211 1.7 5.2 0.00 0.00 0.00 63 1008.8
20260505231537 67 216 2.6 5.2 0.00 0.00 0.00 63 1008.7
20260505230517 68 213 2.6 7.0 0.00 0.00 0.00 63 1008.5
20260505225517 68 213 2.6 6.1 0.00 0.00 0.00 62 1008.3
20260505224517 69 223 2.6 6.1 0.00 0.00 0.00 61 1008.2
20260505223538 69 216 2.6 6.1 0.00 0.00 0.00 61 1008.3
20260505222558 70 217 2.6 7.0 0.00 0.00 0.00 60 1008.2
20260505221518 71 225 2.6 7.0 0.00 0.00 0.00 59 1008.0
20260505220518 71 223 3.5 7.0 0.00 0.00 0.00 59 1008.0
20260505215515 71 223 2.6 5.2 0.00 0.00 0.00 58 1008.0
20260505214516 72 220 2.6 5.2 0.00 0.00 0.00 57 1008.0
20260505213536 72 223 2.6 7.8 0.00 0.00 0.00 56 1007.8
20260505212516 72 219 2.6 7.0 0.00 0.00 0.00 56 1007.9
20260505211516 72 220 2.6 7.0 0.00 0.00 0.00 56 1007.9
20260505210516 73 221 2.6 9.6 0.00 0.00 0.00 56 1007.7
20260505205516 73 220 1.7 5.2 0.00 0.00 0.00 55 1007.8
20260505204517 73 222 2.6 5.2 0.00 0.00 0.00 55 1007.8
20260505203516 73 218 3.5 7.0 0.00 0.00 0.00 55 1007.8
20260505202516 74 211 2.6 6.1 0.00 0.00 0.00 55 1007.9
20260505201517 74 216 2.6 6.1 0.00 0.00 0.00 54 1008.0
20260505200518 74 216 3.5 7.0 0.00 0.00 0.00 54 1008.1
20260505195557 75 218 2.6 6.1 0.00 0.00 0.00 54 1008.2
20260505194517 74 215 1.7 4.3 0.00 0.00 0.00 55 1008.3
20260505193537 74 216 2.6 7.0 0.00 0.00 0.00 55 1008.7
20260505192518 74 218 2.6 5.2 0.00 0.00 0.00 55 1008.6
20260505191518 75 218 2.6 7.0 0.00 0.00 0.00 54 1008.9
20260505190518 75 220 1.7 3.5 0.00 0.00 0.00 54 1009.1
20260505185518 75 224 2.6 6.1 0.00 0.00 0.00 54 1009.2
20260505184515 75 188 0.9 2.6 0.00 0.00 0.00 55 1009.3
20260505183515 75 203 0.9 3.5 0.00 0.00 0.00 56 1009.4
20260505182515 75 217 2.6 7.0 0.00 0.00 0.00 56 1009.5
20260505181516 75 214 1.7 4.3 0.00 0.00 0.00 55 1009.4
20260505180535 76 206 1.7 3.5 0.00 0.00 0.00 54 1009.5
20260505175516 76 220 1.7 5.2 0.00 0.00 0.00 54 1009.6
20260505174516 76 226 1.7 4.3 0.00 0.00 0.00 53 1009.7
20260505173516 77 218 2.6 4.3 0.00 0.00 0.00 52 1009.7
20260505172556 78 217 1.7 6.1 0.00 0.00 0.00 50 1009.7
20260505171537 78 209 0.9 5.2 0.00 0.00 0.00 52 1009.8
20260505170516 78 218 0.9 3.5 0.00 0.00 0.00 51 1009.8
20260505165517 77 218 1.7 4.3 0.00 0.00 0.00 51 1010.0
20260505164517 76 217 1.7 4.3 0.00 0.00 0.00 52 1010.1
20260505163517 76 218 1.7 4.3 0.00 0.00 0.00 51 1010.2
20260505162517 76 219 1.7 4.3 0.00 0.00 0.00 51 1010.4
20260505161517 76 212 1.7 6.1 0.00 0.00 0.00 51 1010.4
20260505160537 75 215 1.7 6.1 0.00 0.00 0.00 52 1010.5
20260505152518 74 215 1.7 5.2 0.00 0.00 0.00 55 1010.9
20260505151515 73 209 0.9 6.1 0.00 0.00 0.00 56 1011.0
20260505150515 73 222 1.7 3.5 0.00 0.00 0.00 56 1011.2
20260505140517 72 221 0.9 4.3 0.00 0.00 0.00 57 1011.1
20260505124517 66 213 1.7 3.5 0.00 0.00 0.00 65 1011.1
20260505123517 66 204 1.7 3.5 0.00 0.00 0.00 66 1010.9
20260505122518 65 203 0.9 2.6 0.00 0.00 0.00 67 1011.0
20260505121558 64 204 1.7 3.5 0.00 0.00 0.00 68 1011.0
20260505120518 62 203 1.7 4.3 0.00 0.00 0.00 72 1011.0
20260505115518 60 193 1.7 3.5 0.00 0.00 0.00 75 1011.1
20260505114515 59 188 0.9 1.7 0.00 0.00 0.00 78 1011.1
20260505113518 59 187 0.9 2.6 0.00 0.00 0.00 79 1011.1
20260505112516 58 208 0.9 3.5 0.00 0.00 0.00 79 1011.3
20260505111516 57 212 1.7 3.5 0.00 0.00 0.00 81 1011.3
20260505110516 56 192 0.9 1.7 0.00 0.00 0.00 84 1011.3
20260505101516 54 187 0.9 1.7 0.00 0.00 0.00 87 1010.7
20260505100517 54 192 0.0 1.7 0.00 0.00 0.00 86 1010.3
20260505095516 54 188 0.0 1.7 0.00 0.00 0.00 86 1010.2
20260505094517 54 198 0.9 2.6 0.00 0.00 0.00 86 1010.2
20260505093517 54 188 0.9 1.7 0.00 0.00 0.00 86 1010.3
20260505092517 54 198 0.9 1.7 0.00 0.00 0.00 87 1010.3
20260505091517 54 196 0.9 2.6 0.00 0.00 0.00 87 1010.3
20260505090517 55 195 0.9 1.7 0.00 0.00 0.00 85 1010.3
20260505085518 55 187 0.9 1.7 0.00 0.00 0.00 85 1010.4
20260505084518 55 189 0.9 1.7 0.00 0.00 0.00 85 1010.3
20260505083517 55 180 0.0 1.7 0.00 0.00 0.00 85 1010.3
20260505082515 55 191 0.9 1.7 0.00 0.00 0.00 85 1010.3
20260505081515 55 194 0.9 1.7 0.00 0.00 0.00 86 1010.3
20260505080515 55 192 0.9 1.7 0.00 0.00 0.00 86 1010.3
20260505075516 54 201 0.9 1.7 0.00 0.00 0.00 86 1010.3
20260505074516 54 188 0.9 1.7 0.00 0.00 0.00 87 1010.3
20260505073515 55 193 0.9 1.7 0.00 0.00 0.00 87 1010.2
20260505072516 55 188 0.9 2.6 0.00 0.00 0.00 86 1010.2
20260505071516 55 198 0.0 1.7 0.00 0.00 0.00 85 1010.2
20260505070516 55 183 0.9 2.6 0.00 0.00 0.00 85 1010.1
20260505065516 55 187 0.9 1.7 0.00 0.00 0.00 84 1010.2
20260505064537 55 200 0.9 2.6 0.00 0.00 0.00 83 1010.2
20260505063517 56 195 0.9 1.7 0.00 0.00 0.00 83 1010.3
20260505062517 56 193 1.7 2.6 0.00 0.00 0.00 82 1010.3
20260505061517 56 196 1.7 2.6 0.00 0.00 0.00 81 1010.4
20260505060537 57 203 1.7 3.5 0.00 0.00 0.00 79 1010.3
20260505055517 57 200 1.7 2.6 0.00 0.00 0.00 77 1010.4
20260505054517 58 197 0.9 2.6 0.00 0.00 0.00 76 1010.5
20260505053517 58 200 1.7 2.6 0.00 0.00 0.00 74 1010.5
20260505052518 59 188 1.7 4.3 0.00 0.00 0.00 73 1010.6
20260505051518 59 214 1.7 4.3 0.00 0.00 0.00 71 1010.5
20260505050515 60 194 1.7 4.3 0.00 0.00 0.00 69 1010.6
20260505041536 60 189 0.9 2.6 0.00 0.00 0.00 66 1010.8
20260505040516 60 193 0.9 3.5 0.00 0.00 0.00 66 1010.9
20260505035537 60 196 1.7 2.6 0.00 0.00 0.00 66 1010.9
20260505034516 60 196 0.9 2.6 0.00 0.00 0.00 67 1010.9
20260505033516 60 199 0.9 3.5 0.00 0.00 0.00 67 1010.9
20260505032517 60 192 0.9 2.6 0.00 0.00 0.00 67 1010.9
20260505031516 60 214 0.9 2.6 0.00 0.00 0.00 67 1011.0
20260505030517 60 200 0.9 2.6 0.00 0.00 0.00 66 1011.0